Regional Weather Roundup
Issued by NWS

Home | Current Version | Previous Version | Graphics & Text | Print | Product List | Glossary On
Versions: 1 2 3 4 5 6 7 8 9 10 11 12 13 14 15 16 17 18 19 20 21 22 23 24 25 26 27 28 29 30 31 32 33 34 35 36 37 38 39 40 41 42 43 44 45 46 47 48 49 50
000
ASUS43 KFSD 290002
RWRSD

WEATHER ROUNDUP FOR SOUTH DAKOTA
NATIONAL WEATHER SERVICE SIOUX FALLS SD
600 PM CST WED JAN 28 2015

NOTE: "FAIR" INDICATES FEW OR NO CLOUDS BELOW 12,000 FEET WITH NO
SIGNIFICANT WEATHER AND/OR OBSTRUCTIONS TO VISIBILITY.


SDZ001>005-009-010-012>017-290100-
NORTHWEST AND NORTH CENTRAL SOUTH DAKOTA

CITY           SKY/WX    TMP DP  RH WIND       PRES   REMARKS
BUFFALO          N/A     35  29  78 NW31G41   30.07R WCI  22
FAITH            N/A     34  28  79 N29G37    30.05R WCI  20
MOBRIDGE       CLOUDY    36  29  75 N32G43    29.96R
$$

SDZ012>016-024>037-041>051-057-063-072>074-290100-
SOUTHWEST AND SOUTH CENTRAL SOUTH DAKOTA

CITY           SKY/WX    TMP DP  RH WIND       PRES   REMARKS
RAPID CTY ARPT MOCLDY    44  31  60 N26G38    30.06R
PIERRE         CLOUDY    43  34  70 NW36G43   29.92R
CUSTER         MOCLDY    41  23  48 N15G24    30.08R
ELLSWORTH AFB  MOCLDY    43  32  65 NW33G43   30.06R
PHILIP         CLOUDY    45  32  60 N29G38    30.01R
PINE RIDGE     CLOUDY    48  31  51 NW9       30.04R
WINNER         CLOUDY    53  32  44 NW29G43   29.90R
$$

SDZ004>011-016>023-039-040-290100-
NORTHEAST SOUTH DAKOTA

CITY           SKY/WX    TMP DP  RH WIND       PRES   REMARKS
ABERDEEN       CLOUDY    35  31  85 N24G33    29.90R WCI  23
WATERTOWN      CLOUDY    36  32  85 N9        29.79R
$$

SDZ017-020-022-023-036>040-048>070-290100-
SOUTHEAST SOUTH DAKOTA

CITY           SKY/WX    TMP DP  RH WIND       PRES   REMARKS
SIOUX FALLS    PTCLDY    36  33  89 NE5       29.75R
HURON          CLOUDY    42  37  82 MISG      29.83R
MITCHELL       PTCLDY    44  38  79 NW14      29.80R
YANKTON        CLEAR     45  36  70 NW12      29.77R
$$

ABBREVIATIONS USED IN REMARKS
   TC - TEMPERATURE IN CELSIUS
  WCI - WIND CHILL INDEX
   HX - HEAT INDEX
  VSB - VISIBILITY




USA.gov is the U.S. government's official web portal to all federal, state and local government web resources and services.